Vertical_Velocity
-4 0 4 2 1 -0 2 2 1 -0 2 -0 3 1 1 -0 2 1 1 -1 1 -1 -3 -1 -0 -1 -1 -2 7 -3 -2 -1 1 -4 2 2 0 3 -3 -4 -1 2 0 4 -2 2 2
-2 1 0 -2 10 -1 -0 1 1 1 0 2 1 1 1 2 0 2 1 1 -1 -2 -2 -0 -1 -0 -2 3 -1 -4 -3 -0 -1 1 1 2 2 6 -1 -4 -0 1 -2 1 2 2 -0
1 -2 2 3 -6 13 1 -1 1 1 2 0 1 1 1 1 1 1 0 1 -2 -0 0 -2 -1 -2 -0 12 -3 2 -4 2 -5 -2 2 -1 3 2 1 1 9 1 1 -2 -1 -1 -2
3 1 0 -0 -1 1 9 3 1 2 0 2 1 1 1 2 2 1 1 -0 0 -1 2 -1 0 -3 -1 1 0 -2 -2 1 1 -3 2 3 4 2 3 2 2 2 0 -1 -4 1 -2
-4 -4 -0 2 1 -3 2 3 2 1 0 2 0 3 -0 0 2 1 2 -1 1 -0 2 0 1 -3 -1 -0 3 -1 -2 2 -1 -0 1 8 5 3 3 4 0 1 -2 -1 -8 -5 -3
-4 -2 0 -5 0 4 -1 -4 14 7 1 0 2 2 2 1 1 1 1 1 1 2 2 -1 -1 -4 -1 -1 1 -1 -1 -2 -1 -1 2 0 5 0 -2 -3 -15 -6 -5 2 7 -2 6
-3 -3 -1 -3 -0 -3 2 1 3 -7 8 5 4 3 4 1 2 0 1 0 1 -1 -2 5 -1 -1 -5 -1 0 2 -1 2 -0 0 -4 3 3 -14 -7 0 4 2 3 2 4 0 -1
-4 -5 -4 -3 -2 0 -1 2 3 7 11 6 5 2 3 5 2 1 -1 -3 6 0 -3 2 0 -3 3 -3 -1 -3 2 -4 1 -8 8 3 -9 -11 3 3 6 6 1 2 -6 -2 9
-2 -2 -4 -3 -4 -4 -2 2 1 -3 10 15 -0 2 3 5 5 -3 3 1 -0 1 1 -2 1 -1 3 4 4 -5 -0 3 -2 7 -0 -7 -10 5 1 3 2 -5 -3 1 3 -2 2
-2 -3 -4 -4 -2 -2 -3 -2 1 -5 20 6 7 6 3 8 1 6 -0 2 1 2 -0 -4 -1 -3 -2 1 -8 2 -0 3 1 -7 9 8 -6 0 1 -3 5 -0 -4 4 7 4 -3
-4 -3 -2 -3 -1 1 3 1 1 3 5 16 12 9 -0 6 1 -1 15 5 3 -1 -3 -5 -1 -3 -1 0 -2 0 -0 5 -1 -3 1 -18 -4 -2 1 -20 6 -4 0 3 5 6 11
-3 -1 -6 -2 -8 2 0 -4 2 -0 7 6 19 18 4 -3 -4 4 2 3 3 -0 -13 -3 -1 -1 0 1 -2 -4 -1 5 3 13 10 7 1 -3 -10 4 4 1 2 3 3 5 8
-4 -3 -3 3 -0 6 -2 -4 10 -0 -3 16 24 19 -1 -1 -6 -3 4 1 1 -0 -1 -2 -4 -3 0 -2 -0 -0 -6 6 1 9 2 11 -2 0 -2 2 4 10 8 -1 5 8 -10
2 -2 -3 -2 -4 2 -0 -2 1 -4 1 -2 13 43 2 4 12 9 -8 3 1 2 1 -0 -4 -1 -5 1 -2 0 1 -4 -5 17 8 2 3 -3 -1 -8 -2 -5 -2 -5 -4 -1 -6
-3 -3 -2 -3 -2 -3 -14 5 -1 -1 -1 18 28 77 9 -1 2 4 8 -0 -3 -2 -0 -0 -1 2 2 3 -2 -1 -4 1 -8 -3 -4 -3 -2 -12 -9 13 -5 -6 6 -11 8 -1 8
-0 -1 -3 -3 -5 -13 41 9 -4 -6 8 2 71 51 -4 11 2 10 9 -5 -1 -2 -0 -0 0 -0 0 -4 -3 2 -1 4 -5 -7 2 0 -2 -4 4 5 1 -4 20 3 7 1 0
-1 -6 1 -7 -9 17 24 23 16 0 -1 -7 35 -6 22 11 8 23 -4 -5 0 -2 3 -1 -2 0 -3 -0 3 -3 -8 1 0 -5 9 5 8 5 12 -10 -9 -1 -5 5 3 2 2
-3 1 -3 -3 -3 -5 26 3 20 -3 19 -7 70 10 -20 3 21 9 -0 -9 3 -3 1 2 -3 0 -5 5 -1 -2 -8 -5 3 10 -10 -6 6 -6 -37 -11 -7 -12 -11 9 3 -2 -10
-2 -3 -4 2 -4 3 19 18 -2 -5 -3 32 19 -9 16 22 -4 -5 -5 -1 1 2 -0 2 -0 -7 1 4 -3 -2 2 5 -1 2 -4 -4 1 3 -5 25 17 -3 3 -6 -3 4 -6
-2 -5 1 -4 -2 0 7 13 -8 14 28 50 9 7 7 33 -2 -2 1 -1 1 -0 2 -1 3 1 4 -6 -2 1 -1 2 1 1 1 12 4 -7 -14 14 1 1 -11 -4 -4 6 -4
2 -3 -3 -5 -1 -5 -2 -5 1 8 -5 35 7 12 -22 -17 0 -9 4 2 -2 -1 3 -1 -2 -3 -1 -4 1 -5 -0 3 -0 -0 5 5 -5 4 -4 15 14 -3 -6 -4 8 6 -8
4 -4 -0 -2 1 2 -1 -7 26 -2 3 -2 -8 -12 -2 -2 -3 6 2 -4 -2 0 3 -2 -3 9 0 -12 -1 1 9 1 4 -1 7 2 -12 13 5 2 -3 -0 -0 1 10 2 -21
4 -3 -1 -5 -1 -0 -6 12 14 -2 -13 32 19 -2 8 -3 2 3 -8 -3 3 8 -4 4 1 1 -4 -6 4 5 4 6 -1 5 2 2 -1 -1 -1 9 9 11 -5 -4 5 -2 -9
6 -8 3 1 -1 -2 -7 -6 6 5 11 2 -1 8 -1 -5 1 -1 -4 4 -1 2 -1 -4 -2 2 -2 1 2 -1 6 -2 8 -2 -4 1 7 9 4 -4 -2 1 3 -10 -20 -6 4
1 -3 -4 -5 -5 -3 -1 3 26 20 1 12 -5 -2 -3 -1 -1 1 8 6 -3 0 -2 -13 10 -2 1 3 4 2 -3 0 -4 3 -2 -0 7 -1 -1 1 -2 9 7 -6 -13 -5 7
-1 5 -1 -4 -5 0 3 -2 -3 -10 7 7 10 -2 0 -4 -8 3 0 -1 -2 4 0 -3 3 5 -2 6 3 -1 -2 2 -2 -1 3 1 2 6 1 1 -0 2 4 3 10 -3 3
-2 1 -5 -5 -7 -5 -1 -0 -1 2 9 4 -10 2 -2 -2 -0 -2 -1 2 -1 1 -1 -2 1 5 11 1 15 -2 -3 1 -2 0 -4 -1 5 -1 -1 -2 -2 3 0 3 -0 -4 -0
-1 0 -6 -5 -6 -7 -0 -1 4 9 7 8 15 1 -1 -3 0 0 -1 2 -0 -1 -6 -2 5 7 1 5 3 -4 0 -2 -1 0 -3 -5 -4 -4 2 -2 -9 1 2 1 2 3 2
-1 4 3 -0 1 -2 -2 -2 0 4 0 -5 -2 -1 3 2 -3 -1 -2 -2 -2 -1 -2 1 0 2 7 0 -3 -0 -3 -0 2 -3 1 -3 -1 -14 -5 -1 -1 -3 -2 2 2 -1 -1
Height
3077 3075 3074 3072 3071 3070 3070 3069 3068 3069 3069 3069 3069 3069 3069 3069 3069 3069 3069 3070 3070 3070 3069 3068 3067 3067 3070 3071 3070 3073 3074 3075 3076 3078 3079 3080 3082 3083 3083 3085 3089 3085 3087 3092 3095 3098 3101
3068 3067 3066 3066 3065 3064 3063 3063 3062 3061 3062 3062 3062 3063 3063 3064 3064 3064 3065 3065 3066 3066 3065 3064 3062 3065 3066 3065 3066 3067 3069 3070 3071 3072 3074 3076 3079 3080 3078 3079 3082 3081 3081 3083 3087 3090 3094
3062 3058 3057 3058 3058 3056 3055 3055 3055 3054 3054 3055 3056 3056 3057 3058 3059 3059 3059 3060 3061 3061 3061 3059 3058 3059 3061 3063 3060 3061 3065 3066 3064 3066 3069 3070 3073 3074 3074 3077 3077 3074 3075 3077 3079 3083 3086
3054 3051 3048 3046 3047 3049 3046 3046 3047 3046 3046 3047 3049 3050 3050 3051 3053 3054 3054 3054 3055 3055 3056 3054 3054 3056 3057 3057 3055 3055 3060 3061 3061 3061 3064 3065 3067 3068 3069 3072 3072 3072 3072 3071 3074 3080 3083
3047 3043 3039 3037 3035 3037 3038 3037 3037 3038 3038 3039 3041 3043 3044 3045 3046 3047 3048 3049 3049 3050 3050 3049 3049 3050 3054 3053 3052 3051 3053 3057 3057 3058 3060 3063 3063 3064 3066 3069 3071 3069 3065 3066 3069 3075 3079
3039 3034 3030 3026 3025 3023 3024 3025 3028 3028 3030 3031 3033 3035 3037 3038 3040 3041 3043 3044 3044 3044 3044 3044 3043 3048 3048 3049 3048 3048 3049 3050 3052 3053 3056 3057 3057 3058 3061 3064 3058 3062 3061 3061 3065 3071 3074
3025 3023 3020 3016 3013 3011 3010 3012 3017 3019 3019 3023 3025 3026 3029 3031 3034 3035 3038 3039 3042 3040 3038 3040 3038 3040 3041 3042 3042 3044 3045 3046 3047 3048 3049 3052 3052 3048 3053 3057 3058 3059 3058 3057 3062 3066 3067
3015 3009 3005 3002 2999 2997 2997 2998 3002 3008 3010 3013 3017 3019 3022 3024 3026 3029 3031 3032 3035 3033 3032 3032 3032 3034 3035 3033 3034 3039 3041 3043 3042 3042 3046 3048 3041 3046 3051 3052 3054 3055 3054 3052 3058 3063 3064
3007 3001 2994 2989 2986 2983 2984 2985 2990 2996 2999 3002 3007 3011 3015 3017 3019 3022 3025 3028 3028 3027 3027 3024 3028 3024 3029 3029 3028 3032 3035 3037 3037 3039 3040 3039 3039 3044 3044 3046 3048 3047 3048 3053 3055 3058 3054
2995 2988 2983 2979 2976 2973 2972 2972 2976 2983 2985 2991 2996 3004 3008 3010 3013 3016 3019 3023 3024 3024 3024 3019 3020 3019 3020 3021 3024 3026 3028 3032 3031 3032 3037 3034 3037 3039 3037 3039 3044 3040 3046 3050 3052 3056 3052
2985 2979 2973 2970 2969 2966 2963 2962 2964 2971 2976 2981 2987 2994 2999 3005 3007 3011 3018 3018 3020 3023 3024 3017 3015 3017 3017 3020 3020 3021 3022 3024 3024 3027 3030 3025 3028 3032 3032 3033 3039 3038 3045 3047 3049 3049 3049
2980 2973 2965 2963 2962 2959 2955 2955 2954 2957 2965 2970 2978 2985 2993 2996 3002 3008 3010 3013 3017 3023 3014 3010 3011 3013 3015 3014 3015 3016 3018 3021 3020 3021 3020 3023 3024 3026 3025 3031 3034 3038 3042 3044 3045 3047 3037
2974 2966 2960 2956 2953 2949 2948 2946 2946 2948 2954 2960 2970 2978 2985 2991 2999 3003 3005 3009 3016 3012 3008 3006 3006 3010 3012 3011 3010 3010 3013 3015 3015 3017 3013 3015 3015 3019 3021 3026 3030 3034 3039 3040 3040 3038 3021
2969 2961 2954 2950 2947 2944 2940 2937 2935 2937 2945 2950 2963 2971 2979 2986 2991 2995 3001 3006 3005 3000 3001 3001 3003 3005 3005 3006 3005 3005 3007 3007 3008 3009 3008 3008 3011 3010 3013 3018 3022 3024 3029 3029 3030 3027 3020
2964 2956 2948 2945 2942 2938 2934 2927 2929 2931 2936 2943 2955 2961 2971 2977 2984 2989 2993 2995 2995 2996 2998 2999 3000 3000 3000 3000 3002 3002 3001 3000 3000 3001 3006 3004 3004 3005 3008 3013 3018 3020 3019 3020 3024 3020 3019
2959 2952 2944 2942 2938 2931 2923 2921 2922 2925 2932 2935 2946 2956 2961 2972 2979 2985 2987 2987 2990 2992 2994 2995 2997 2996 2995 2996 2998 2998 2997 2993 2991 2992 2998 3000 3002 3002 3003 3005 3008 3011 3016 3021 3023 3021 3012
2955 2947 2940 2938 2933 2926 2922 2921 2922 2923 2928 2938 2941 2948 2957 2968 2974 2977 2977 2982 2987 2989 2991 2993 2991 2991 2991 2994 2994 2995 2992 2990 2988 2990 2993 2995 2997 2997 2997 2994 2998 3004 3006 3010 3012 3011 3002
2950 2943 2937 2934 2931 2925 2921 2918 2918 2921 2928 2934 2932 2937 2952 2962 2967 2969 2973 2978 2983 2984 2986 2987 2986 2986 2988 2989 2989 2990 2987 2987 2987 2989 2988 2989 2990 2987 2983 2986 2990 2992 2995 3001 3003 3005 3003
2947 2939 2933 2930 2928 2922 2919 2915 2913 2918 2921 2926 2933 2941 2946 2958 2959 2965 2970 2977 2978 2980 2981 2981 2981 2982 2983 2984 2986 2984 2984 2984 2985 2985 2983 2981 2980 2979 2974 2977 2978 2978 2985 2993 3001 3002 2998
2943 2936 2929 2926 2925 2920 2913 2910 2911 2908 2913 2917 2925 2936 2946 2951 2956 2962 2969 2971 2974 2976 2976 2976 2976 2978 2980 2979 2980 2980 2981 2983 2982 2981 2978 2976 2972 2970 2966 2958 2961 2968 2977 2983 2991 2992 2989
2939 2932 2925 2922 2922 2920 2915 2910 2909 2909 2913 2917 2925 2929 2935 2943 2950 2960 2965 2967 2969 2971 2971 2973 2972 2974 2975 2976 2977 2976 2980 2981 2978 2975 2973 2971 2966 2961 2956 2955 2961 2966 2968 2975 2981 2982 2987
2935 2929 2922 2918 2919 2917 2915 2912 2908 2908 2914 2919 2925 2928 2936 2943 2950 2956 2960 2962 2965 2967 2968 2967 2968 2970 2970 2969 2974 2976 2977 2978 2974 2972 2969 2966 2961 2957 2948 2944 2954 2961 2967 2972 2979 2982 2983
2931 2926 2919 2916 2915 2915 2914 2910 2909 2912 2918 2922 2925 2932 2941 2945 2949 2954 2955 2959 2961 2963 2963 2963 2964 2965 2965 2967 2971 2974 2974 2974 2972 2970 2968 2966 2961 2959 2955 2954 2956 2963 2961 2966 2973 2976 2980
2928 2923 2917 2913 2912 2911 2907 2906 2909 2913 2917 2919 2927 2935 2938 2943 2947 2949 2953 2956 2958 2959 2960 2959 2960 2961 2962 2967 2970 2970 2971 2972 2970 2967 2966 2966 2965 2962 2958 2958 2960 2960 2958 2959 2964 2969 2971
2925 2921 2915 2911 2910 2910 2909 2909 2909 2911 2917 2922 2927 2933 2937 2940 2945 2947 2950 2952 2954 2956 2957 2955 2954 2956 2960 2964 2968 2969 2968 2969 2966 2967 2968 2967 2968 2967 2964 2962 2962 2961 2961 2963 2966 2970 2975
2922 2918 2913 2908 2907 2908 2907 2907 2907 2911 2916 2921 2925 2931 2936 2940 2942 2946 2948 2950 2951 2951 2952 2950 2949 2950 2955 2960 2964 2964 2965 2964 2964 2964 2966 2967 2967 2970 2967 2965 2963 2964 2964 2965 2967 2969 2970
2919 2915 2910 2905 2904 2903 2904 2907 2908 2911 2915 2920 2924 2930 2934 2938 2940 2943 2945 2946 2947 2948 2947 2944 2942 2946 2952 2956 2957 2960 2962 2962 2962 2962 2962 2965 2966 2967 2968 2966 2961 2963 2963 2964 2967 2970 2967
2916 2913 2908 2905 2903 2903 2903 2905 2907 2911 2916 2920 2924 2929 2933 2934 2938 2939 2942 2943 2944 2944 2943 2943 2944 2944 2949 2953 2956 2957 2958 2959 2960 2959 2960 2962 2964 2965 2967 2967 2964 2961 2963 2966 2967 2967 2966
2912 2909 2906 2902 2901 2900 2900 2903 2905 2910 2915 2920 2925 2928 2930 2933 2935 2936 2938 2940 2941 2941 2940 2938 2940 2941 2944 2949 2952 2955 2955 2956 2956 2957 2958 2960 2960 2961 2963 2962 2962 2962 2964 2965 2967 2968 2969